Weather History for LTBA - May, 2012

Change the Weather History Date:

Sunday, May 6, 2012

  Actual Average Record
Temperature  
Mean Temperature 65 °F -  
Max Temperature 71 °F 71 °F - (-1)
Min Temperature 59 °F 56 °F - (-1)
Growing Degree Days 15 (Base 50)    
Moisture  
Dew Point 59 °F    
Average Humidity 81    
Maximum Humidity 100    
Minimum Humidity 56    
Precipitation  
Precipitation 0.00 in - - ()
Sea Level Pressure  
Sea Level Pressure 29.89 in    
Wind  
Wind Speed 5 mph ()    
Max Wind Speed 10 mph    
Max Gust Speed -    
Visibility 6.0 miles    
Events      
Averages and records for this station are not official NWS values.
T = Trace of Precipitation, MM = Missing Value Source: Averaged Metar Reports

Daily Weather History Graph

Daily Weather History Graph

Search for Another Location

Airport or City:

Trip Planner

Search our weather history database for the weather conditions in past years. The results will help you decide how hot, cold, wet, or windy it might be!

Date:

Astronomy

May. 06, 2012 Rise Set
Actual Time 5:56 AM EEST 8:06 PM EEST
Civil Twilight 5:26 AM EEST 8:37 PM EEST
Nautical Twilight 4:48 AM EEST 9:14 PM EEST
Astronomical Twilight 4:08 AM EEST 9:55 PM EEST
Moon 8:49 PM EEST (5/6) 5:50 AM EEST (5/6)
Length of Visible Light 15h 11m
Length of Day
14h 10m
Full, 100% of the Moon is Illuminated
May 6
Full
May 13
Last Quarter
May 21
New
May 28
First Quarter
Jun 4
Full

Hourly Weather History & Observations

Time (EEST) Temp. Dew Point Humidity Pressure Visibility Wind Dir Wind Speed Gust Speed Precip Events Conditions
12:20 AM 64.4 °F 60.8 °F 88% 29.86 in 6.2 mi South 3.5 mph - N/A   Scattered Clouds
12:50 AM 62.6 °F 60.8 °F 94% 29.86 in - SW 4.6 mph - N/A   Clear
1:20 AM 64.4 °F 62.6 °F 94% 29.86 in - West 3.5 mph - N/A   Clear
1:50 AM 62.6 °F 62.6 °F 100% 29.83 in - SW 3.5 mph - N/A   Clear
2:20 AM 62.6 °F 60.8 °F 94% 29.83 in - Variable 2.3 mph - N/A   Clear
2:50 AM 60.8 °F 60.8 °F 100% 29.83 in - SSW 5.8 mph - N/A   Clear
3:20 AM 60.8 °F 60.8 °F 100% 29.83 in - WSW 4.6 mph - N/A   Clear
3:50 AM 60.8 °F 60.8 °F 100% 29.83 in - West 4.6 mph - N/A   Clear
4:20 AM 60.8 °F 59.0 °F 94% 29.86 in - Variable 2.3 mph - N/A   Clear
4:50 AM 59.0 °F 59.0 °F 100% 29.86 in - SW 3.5 mph - N/A   Clear
5:20 AM 60.8 °F 59.0 °F 94% 29.86 in - Variable 1.2 mph - N/A   Clear
5:50 AM 60.8 °F 59.0 °F 94% 29.86 in - SSW 4.6 mph - N/A   Clear
6:20 AM 60.8 °F 60.8 °F 100% 29.86 in - Variable 2.3 mph - N/A   Clear
6:50 AM 60.8 °F 60.8 °F 100% 29.86 in 3.7 mi Variable 2.3 mph - N/A   Unknown
7:20 AM 62.6 °F 62.6 °F 100% 29.89 in - SSW 4.6 mph - N/A   Clear
7:50 AM 62.6 °F 62.6 °F 100% 29.89 in - SW 5.8 mph - N/A   Clear
8:20 AM 64.4 °F 62.6 °F 94% 29.89 in - SW 6.9 mph - N/A   Clear
8:50 AM 64.4 °F 62.6 °F 94% 29.89 in - SW 6.9 mph - N/A   Clear
9:00 AM 65 °F 62 °F 86% 29.91 in 6 mi SW 6.9 mph - -  
9:20 AM 66.2 °F 57.2 °F 73% 29.89 in - SW 6.9 mph - N/A   Clear
9:50 AM 66.2 °F 59.0 °F 78% 29.92 in - SW 8.1 mph - N/A   Clear
10:20 AM 66.2 °F 59.0 °F 78% 29.92 in - SW 9.2 mph - N/A   Clear
10:50 AM 66.2 °F 59.0 °F 78% 29.92 in - SW 10.4 mph - N/A   Clear
11:20 AM 68.0 °F 57.2 °F 68% 29.92 in - SW 9.2 mph - N/A   Clear
11:50 AM 68.0 °F 53.6 °F 60% 29.92 in - SW 8.1 mph - N/A   Clear
12:20 PM 68.0 °F 57.2 °F 68% 29.92 in - SW 9.2 mph - N/A   Clear
12:50 PM 68.0 °F 57.2 °F 68% 29.92 in - SW 9.2 mph - N/A   Clear
1:20 PM 68.0 °F 57.2 °F 68% 29.92 in - SW 9.2 mph - N/A   Clear
1:50 PM 68.0 °F 57.2 °F 68% 29.92 in - SW 9.2 mph - N/A   Clear
2:20 PM 69.8 °F 59.0 °F 68% 29.92 in - SW 8.1 mph - N/A   Clear
2:50 PM 69.8 °F 57.2 °F 64% 29.89 in 6.2 mi SW 8.1 mph - N/A   Scattered Clouds
3:00 PM 70 °F 58 °F 56% 29.91 in 6 mi SW 8.1 mph - -   Partly Cloudy
3:20 PM 69.8 °F 55.4 °F 60% 29.89 in 6.2 mi SW 8.1 mph - N/A   Scattered Clouds
3:50 PM 71.6 °F 59.0 °F 64% 29.89 in 6.2 mi SW 6.9 mph - N/A   Scattered Clouds
4:20 PM 69.8 °F 55.4 °F 60% 29.89 in 6.2 mi SW 9.2 mph - N/A   Scattered Clouds
4:50 PM 69.8 °F 55.4 °F 60% 29.89 in 6.2 mi SW 9.2 mph - N/A   Scattered Clouds
5:20 PM 69.8 °F 57.2 °F 64% 29.89 in 6.2 mi SW 9.2 mph - N/A   Scattered Clouds
5:50 PM 68.0 °F 57.2 °F 68% 29.89 in 6.2 mi WSW 10.4 mph - N/A   Scattered Clouds
6:20 PM 68.0 °F 57.2 °F 68% 29.89 in 6.2 mi SW 5.8 mph - N/A   Partly Cloudy
6:50 PM 68.0 °F 55.4 °F 64% 29.89 in - WSW 8.1 mph - N/A   Clear
7:20 PM 68.0 °F 57.2 °F 68% 29.89 in - SW 6.9 mph - N/A   Clear
7:50 PM 68.0 °F 59.0 °F 73% 29.89 in - SW 4.6 mph - N/A   Clear
8:20 PM 66.2 °F 59.0 °F 78% 29.92 in - Variable 2.3 mph - N/A   Clear
8:50 PM 66.2 °F 60.8 °F 83% 29.92 in - Variable 2.3 mph - N/A   Clear
9:00 PM 65 °F 61 °F 84% 29.92 in 6 mi SSW 2.3 mph - -   Clear
9:20 PM 66.2 °F 60.8 °F 83% 29.92 in - WSW 4.6 mph - N/A   Clear
9:50 PM 64.4 °F 62.6 °F 94% 29.92 in - WSW 4.6 mph - N/A   Clear
10:20 PM 64.4 °F 57.2 °F 77% 29.92 in - SW 3.5 mph - N/A   Clear
10:50 PM 64.4 °F 59.0 °F 83% 29.95 in - SW 3.5 mph - N/A   Clear
11:20 PM 64.4 °F 59.0 °F 83% 29.95 in - Variable 2.3 mph - N/A   Clear
11:50 PM 64.4 °F 59.0 °F 83% 29.95 in - SE 5.8 mph - N/A   Clear